Regional Weather Roundup
Issued by NWS

Home | Current Version | Previous Version | Graphics & Text | Print | Product List | Glossary On
Versions: 1 2 3 4 5 6 7 8 9 10 11 12 13 14 15 16 17 18 19 20 21 22 23 24 25 26 27 28 29 30 31 32 33 34 35 36 37 38 39 40 41 42 43 44 45 46 47 48 49 50
000
ASUS44 KMEG 220700
RWRTN
TENNESSEE HOURLY STATE WEATHER ROUNDUP
NATIONAL WEATHER SERVICE MEMPHIS TN
200 AM CDT SAT JUL 22 2017

TNZ002-004-019-021-049-052-054-088>092-220800-
WEST TENNESSEE

CITY           SKY/WX    TMP DP  RH WIND       PRES   REMARKS
MEMPHIS INTL   CLEAR     83  76  79 SW3       29.96S HX  91
NWS MEMPHIS      N/A     78 N/A N/A MISG        N/A
JACKSON        CLEAR     77  76  96 CALM      29.95F
$$

TNZ008-025-027-028-033-062-065-066-220800-
NORTH MIDDLE TENNESSEE

CITY           SKY/WX    TMP DP  RH WIND       PRES   REMARKS
NASHVILLE      CLEAR     79  74  84 S3        29.96F
CLARKSVILLE    CLEAR     79  75  87 CALM      29.95F
SMYRNA         CLEAR     76  74  93 CALM      29.97F
CROSSVILLE     CLEAR     71  70  96 CALM      30.06F
$$

TNZ061-075-076-078-094-096-097-220800-
SOUTH MIDDLE TENNESSEE

CITY           SKY/WX    TMP DP  RH WIND       PRES   REMARKS
$$

TNZ017-018-042-046-047-220800-
NORTHEAST TENNESSEE

CITY           SKY/WX    TMP DP  RH WIND       PRES   REMARKS
TRI CITIES     PTCLDY    71  70  96 CALM      30.04F
$$

TNZ012-013-036-069-073-074-220800-
CENTRAL EAST TENNESSEE

CITY           SKY/WX    TMP DP  RH WIND       PRES   REMARKS
KNOXVILLE      PTCLDY    78  71  79 SW5       29.99F
OAK RIDGE      CLEAR     77  73  87 CALM      30.01F
GATLINBURG     CLEAR     73  66  78 CALM      30.00F
$$

TNZ083-085-099-220800-
SOUTHEAST TENNESSEE

CITY           SKY/WX    TMP DP  RH WIND       PRES   REMARKS
CHATTANOOGA    CLEAR     79  74  84 SE3       29.98F
$$

SKY/WX REPORTED AS FAIR MEANS FEW OR NO CLOUDS BELOW
12 THOUSAND FEET.





USA.gov is the U.S. government's official web portal to all federal, state and local government web resources and services.